Location: Milton
(43.5183°N, 79.8775°W)
Time: 04:59:53
(UTC+00:00)

ISS - Visible Passes

Search period start: 03 December 2023 00:00
Search period end: 13 December 2023 00:00
Orbit: 415 x 417 km, 51.6° (Epoch: 03 December)

Date Brightness Start Highest point End Pass type
(mag) Time Alt. Az. Time Alt. Az. Time Alt. Az.
03 Dec -1.2 00:18:30 10° WNW 00:20:08 22° W 00:20:08 22° W visible
03 Dec -3.1 23:29:51 10° WNW 23:33:07 52° SW 23:34:18 33° SSE visible
04 Dec -3.8 22:41:17 10° WNW 22:44:39 88° SSW 22:47:59 10° SE visible
05 Dec -0.6 00:19:35 10° WSW 00:20:54 12° SW 00:21:44 11° SW visible
05 Dec -1.1 23:30:01 10° W 23:32:32 20° SW 23:35:04 10° S visible
06 Dec -1.9 22:41:02 10° WNW 22:44:05 33° SW 22:47:08 10° SSE visible
08 Dec -0.4 22:41:32 10° WSW 22:43:10 13° SW 22:44:47 10° SSW visible
